Starlink 6095

operational
NORAD ID: 56101 Int'l Des: 2023-046 Owner: SPXS Country: US Constellation: starlink
LEOCIRCULAR

关于 Starlink 6095

正在加载描述...

实时位置

正在加载3D地球...

即将过境

高度历史

Altitude vs Time

uPlot chart will show altitude changes over time

两行轨道根数

1 56101U 23046J 25258.66948985 -.00000185 00000-0 13701-5 0 9997
2 56101 43.0052 30.0275 0000995 273.5511 86.5218 15.02535387135731
Epoch: Sep 15, 2025 • Age: 18 hours

当前状态

高度 558.7 km
速度 7.59 km/s
星下点 20.32°N, 92.61°W
发射日期 Mar 29, 2023
运行时间 2.4 years
类型 internet

技术详情

分类 Payload
质量 305.00 kg
干质量 290.00 kg
总质量 305.00 kg
长度 0.20 m
直径 2.80 m
跨度 9.00 m
形状 Box + pan
制造商 SPXS
平台类型 Starlink
阶段状态 In Orbit
所有者/国家 SPXS/US

大型星座

Loading constellations...